When you browse on this site, cookies collect data to enhance your experience and personalize the content and advertising you see.
Visit our Privacy Policy to learn more. By continuing to use the site, you agree to this use of cookies and data.
  • In United Kingdom
  • List of Countries
  • For 7 days
  • Water Temperature
  • Weather Map
  • Weather Widgets
  • user-avatar
    Login

    Hourly Weather Knighton

    Today, 9 April, Thursday

    Time Temperature Precipitation Wind Pressure Humidity
    00:00 +8°C° 0 mm 1 mps 738 mmHg 88%
    01:00 +8°C° 0 mm 1 mps 738 mmHg 88%
    02:00 +8°C° 0 mm 1 mps 738 mmHg 88%
    03:00 +7°C° 0 mm 1 mps 738 mmHg 88%
    04:00 +7°C° 0 mm 1 mps 738 mmHg 88%
    05:00 +7°C° 0 mm 1 mps 738 mmHg 88%
    06:00 +7°C° 0 mm 1 mps 738 mmHg 89%
    07:00 +9°C° 0 mm 1 mps 738 mmHg 86%
    08:00 +9°C° 0 mm 2 mps 739 mmHg 83%
    09:00 +12°C° 0 mm 2 mps 739 mmHg 80%
    10:00 +14°C° 0 mm 2 mps 739 mmHg 79%
    11:00 +14°C° 0 mm 3 mps 739 mmHg 77%
    12:00 +15°C° 0 mm 4 mps 739 mmHg 76%
    13:00 +17°C° 0 mm 4 mps 739 mmHg 76%
    14:00 +17°C° 0 mm 4 mps 739 mmHg 76%
    15:00 +17°C° 0 mm 3 mps 739 mmHg 76%
    16:00 +17°C° 0.1 mm 3 mps 738 mmHg 80%
    17:00 +16°C° 0.1 mm 3 mps 738 mmHg 84%
    18:00 +15°C° 0.1 mm 2 mps 738 mmHg 88%
    19:00 +14°C° 0.1 mm 2 mps 738 mmHg 90%
    20:00 +13°C° 0.1 mm 2 mps 739 mmHg 92%
    21:00 +12°C° 0.1 mm 2 mps 739 mmHg 94%
    22:00 +10°C° 0 mm 2 mps 739 mmHg 94%
    23:00 +10°C° 0 mm 1 mps 739 mmHg 94%

    Tomorrow, 10 April, Friday

    Time Temperature Precipitation Wind Pressure Humidity
    00:00 +9°C° 0 mm 1 mps 739 mmHg 94%
    01:00 +9°C° 0 mm 1 mps 739 mmHg 93%
    02:00 +8°C° 0 mm 1 mps 738 mmHg 92%
    03:00 +7°C° 0 mm 1 mps 738 mmHg 91%
    04:00 +7°C° 0 mm 1 mps 738 mmHg 90%
    05:00 +7°C° 0 mm 1 mps 738 mmHg 89%
    06:00 +7°C° 0 mm 1 mps 738 mmHg 88%
    07:00 +9°C° 0 mm 1 mps 738 mmHg 85%
    08:00 +10°C° 0 mm 1 mps 738 mmHg 82%
    09:00 +12°C° 0 mm 1 mps 738 mmHg 78%
    10:00 +14°C° 0 mm 2 mps 738 mmHg 77%
    11:00 +15°C° 0 mm 2 mps 738 mmHg 75%
    12:00 +17°C° 0 mm 2 mps 738 mmHg 73%
    13:00 +17°C° 0.3 mm 3 mps 738 mmHg 74%
    14:00 +18°C° 0.3 mm 3 mps 737 mmHg 74%
    15:00 +18°C° 0.3 mm 3 mps 737 mmHg 74%
    16:00 +17°C° 0.4 mm 2 mps 737 mmHg 77%
    17:00 +17°C° 0.4 mm 2 mps 736 mmHg 80%
    18:00 +16°C° 0.4 mm 1 mps 736 mmHg 83%
    19:00 +14°C° 0 mm 1 mps 736 mmHg 85%
    20:00 +13°C° 0 mm 1 mps 736 mmHg 86%
    21:00 +12°C° 0 mm 1 mps 737 mmHg 88%
    22:00 +11°C° 0 mm 1 mps 737 mmHg 89%
    23:00 +11°C° 0 mm 1 mps 736 mmHg 89%

    Day after tomorrow, 11 April, Saturday

    Time Temperature Precipitation Wind Pressure Humidity
    00:00 +10°C° 0 mm 1 mps 736 mmHg 90%
    01:00 +10°C° 0 mm 1 mps 736 mmHg 90%
    02:00 +9°C° 0 mm 1 mps 736 mmHg 90%
    03:00 +9°C° 0 mm 1 mps 736 mmHg 90%
    04:00 +9°C° 0 mm 1 mps 736 mmHg 90%
    05:00 +9°C° 0 mm 1 mps 736 mmHg 90%
    06:00 +9°C° 0 mm 1 mps 736 mmHg 90%
    07:00 +11°C° 0 mm 1 mps 736 mmHg 86%
    08:00 +13°C° 0 mm 1 mps 736 mmHg 83%
    09:00 +15°C° 0 mm 2 mps 736 mmHg 79%
    10:00 +16°C° 0.2 mm 2 mps 736 mmHg 77%
    11:00 +17°C° 0.2 mm 3 mps 736 mmHg 74%
    12:00 +17°C° 0.2 mm 4 mps 736 mmHg 72%
    13:00 +18°C° 0.1 mm 4 mps 736 mmHg 71%
    14:00 +18°C° 0.1 mm 4 mps 735 mmHg 70%
    15:00 +18°C° 0.1 mm 4 mps 735 mmHg 69%
    16:00 +17°C° 0.1 mm 4 mps 735 mmHg 74%
    17:00 +14°C° 0.1 mm 3 mps 735 mmHg 79%
    18:00 +13°C° 0.1 mm 3 mps 734 mmHg 84%
    19:00 +12°C° 0 mm 2 mps 734 mmHg 88%
    20:00 +10°C° 0 mm 2 mps 734 mmHg 91%
    21:00 +9°C° 0 mm 1 mps 734 mmHg 94%
    22:00 +8°C° 0 mm 1 mps 734 mmHg 94%
    23:00 +8°C° 0 mm 1 mps 733 mmHg 95%

    12 April, Sunday

    Time Temperature Precipitation Wind Pressure Humidity
    00:00 +7°C° 0 mm 1 mps 733 mmHg 96%
    01:00 +7°C° 0 mm 1 mps 732 mmHg 95%
    02:00 +7°C° 0 mm 1 mps 731 mmHg 95%
    03:00 +6°C° 0 mm 1 mps 730 mmHg 95%
    04:00 +6°C° 0 mm 1 mps 730 mmHg 95%
    05:00 +7°C° 0 mm 1 mps 729 mmHg 95%
    06:00 +7°C° 0 mm 1 mps 729 mmHg 95%
    07:00 +8°C° 0.4 mm 1 mps 728 mmHg 94%
    08:00 +8°C° 0.4 mm 1 mps 728 mmHg 94%
    09:00 +8°C° 0.4 mm 2 mps 728 mmHg 94%
    10:00 +9°C° 0.3 mm 2 mps 727 mmHg 89%
    11:00 +9°C° 0.3 mm 2 mps 727 mmHg 85%
    12:00 +10°C° 0.3 mm 2 mps 726 mmHg 80%
    13:00 +9°C° 0.3 mm 3 mps 726 mmHg 80%
    14:00 +9°C° 0.3 mm 3 mps 726 mmHg 80%
    15:00 +8°C° 0.3 mm 3 mps 725 mmHg 81%
    16:00 +8°C° 0.1 mm 3 mps 725 mmHg 82%
    17:00 +7°C° 0.1 mm 2 mps 725 mmHg 83%
    18:00 +7°C° 0.1 mm 2 mps 725 mmHg 84%
    19:00 +7°C° 0 mm 1 mps 725 mmHg 86%
    20:00 +6°C° 0 mm 1 mps 725 mmHg 88%
    21:00 +5°C° 0 mm 1 mps 726 mmHg 90%
    22:00 +6°C° 0.2 mm 1 mps 726 mmHg 90%
    23:00 +6°C° 0.2 mm 1 mps 727 mmHg 91%

    13 April, Monday

    Time Temperature Precipitation Wind Pressure Humidity
    00:00 +5°C° 0.2 mm 0 mps 727 mmHg 92%
    01:00 +5°C° 0.7 mm 0 mps 728 mmHg 92%
    02:00 +5°C° 0.7 mm 0 mps 728 mmHg 92%
    03:00 +6°C° 0.7 mm 0 mps 729 mmHg 93%
    04:00 +7°C° 0.4 mm 1 mps 730 mmHg 94%
    05:00 +7°C° 0.4 mm 1 mps 730 mmHg 94%
    06:00 +6°C° 0.4 mm 2 mps 731 mmHg 95%
    07:00 +6°C° 0.4 mm 4 mps 732 mmHg 95%
    08:00 +6°C° 0.4 mm 5 mps 733 mmHg 95%
    09:00 +6°C° 0.4 mm 7 mps 734 mmHg 95%
    10:00 +5°C° 0.2 mm 7 mps 735 mmHg 94%
    11:00 +5°C° 0.2 mm 7 mps 735 mmHg 94%
    12:00 +4°C° 0.2 mm 6 mps 736 mmHg 94%
    13:00 +5°C° 0 mm 6 mps 736 mmHg 91%
    14:00 +7°C° 0 mm 6 mps 736 mmHg 89%
    15:00 +8°C° 0 mm 5 mps 737 mmHg 86%
    16:00 +8°C° 0 mm 5 mps 737 mmHg 86%
    17:00 +8°C° 0 mm 5 mps 737 mmHg 86%
    18:00 +8°C° 0 mm 5 mps 737 mmHg 85%
    19:00 +7°C° 0 mm 5 mps 738 mmHg 88%
    20:00 +5°C° 0 mm 4 mps 738 mmHg 92%
    21:00 +4°C° 0 mm 4 mps 739 mmHg 95%
    22:00 +3°C° 0 mm 3 mps 739 mmHg 95%
    23:00 +3°C° 0 mm 3 mps 739 mmHg 96%

    14 April, Tuesday

    Time Temperature Precipitation Wind Pressure Humidity
    00:00 +2°C° 0 mm 3 mps 739 mmHg 97%
    01:00 +2°C° 0 mm 3 mps 739 mmHg 95%
    02:00 +2°C° 0 mm 3 mps 739 mmHg 93%
    03:00 +3°C° 0 mm 3 mps 739 mmHg 91%
    04:00 +3°C° 0 mm 3 mps 739 mmHg 91%
    05:00 +4°C° 0 mm 2 mps 739 mmHg 90%
    06:00 +4°C° 0 mm 2 mps 739 mmHg 89%
    07:00 +5°C° 0 mm 2 mps 738 mmHg 85%
    08:00 +5°C° 0 mm 3 mps 738 mmHg 82%
    09:00 +7°C° 0 mm 3 mps 738 mmHg 78%
    10:00 +9°C° 0 mm 3 mps 738 mmHg 76%
    11:00 +10°C° 0 mm 4 mps 738 mmHg 75%
    12:00 +12°C° 0 mm 4 mps 738 mmHg 73%
    13:00 +12°C° 0 mm 4 mps 737 mmHg 73%
    14:00 +13°C° 0 mm 4 mps 737 mmHg 74%
    15:00 +14°C° 0 mm 4 mps 736 mmHg 75%
    16:00 +13°C° 0 mm 4 mps 736 mmHg 78%
    17:00 +12°C° 0 mm 4 mps 735 mmHg 82%
    18:00 +12°C° 0 mm 3 mps 735 mmHg 86%
    19:00 +10°C° 0 mm 3 mps 735 mmHg 89%
    20:00 +9°C° 0 mm 3 mps 735 mmHg 91%
    21:00 +7°C° 0 mm 3 mps 735 mmHg 94%
    22:00 +6°C° 0 mm 2 mps 734 mmHg 93%
    23:00 +5°C° 0 mm 2 mps 734 mmHg 92%
    Show more